Tracking 31027 objects as of 19-Jul-2025
HD Live streaming from Space Station
objects crossing your sky now

COSMOS 2227

Track COSMOS 2227 now!
10-day predictions
COSMOS 2227 is classified as:


NORAD ID: 22284
Int'l Code: 1992-093A
Perigee: 841.0 km
Apogee: 866.7 km
Inclination: 71.0 °
Period: 101.9 minutes
Semi major axis: 7224 km
RCS: 7.0075 m2 (large)
Launch date: December 25, 1992
Source: Commonwealth of Independent States (former USSR) (CIS)
Launch site: TYURATAM MISSILE AND SPACE COMPLEX (TTMTR)
Your satellite tracking list
Your tracking list is empty




NASA's NSSDC Master Catalog

Two Line Element Set (TLE):
1 22284U 92093A   25199.61232994 -.00000273  00000-0 -11929-3 0  9992
2 22284  70.9781 162.9405 0017787  19.0178 341.1604 14.13709928679684
Source of the keplerian elements: AFSPC